Location: Forst
(46.9333°N, 15.4333°E)
Time: 03:07:18
(UTC+00:00)

Tiangong - Pass Details

Date: 01 October 2021
Orbit: 382 x 385 km, 41.5° (Epoch: 15 October)

Event Time Altitude Azimuth Distance (km) Brightness Sun altitude
Exits shadow 03:50:20 18° 228° (SW) 1,038 2.7 -12.2°
Maximum altitude 03:52:05 30° 178° (S) 723 2.4 -11.9°
Drops below altitude 10° 03:54:53 10° 115° (ESE) 1,397 4.8 -11.4°
Sets 03:57:06 0° 104° (ESE) 2,250 6.4 -11.0°
